Time,TemperatureF,DewpointF,PressureIn,WindDirection,WindDirectionDegrees,WindSpeedMPH,WindSpeedGustMPH,Humidity,HourlyPrecipIn,Conditions,Clouds,dailyrainin,SoftwareType,DateUTC
2013-07-09 00:02:00,76.6,63.5,30.18,SSE,158,0.0,0.0,64,0.00,,,0.00,WSDL version 430,2013-07-09 05:02:00,
2013-07-09 00:07:00,76.6,63.6,30.18,SSE,158,0.0,0.0,64,0.00,,,0.00,WSDL version 430,2013-07-09 05:07:00,
2013-07-09 00:12:00,76.5,63.5,30.18,SSE,158,0.0,0.0,65,0.00,,,0.00,WSDL version 430,2013-07-09 05:12:00,
2013-07-09 00:17:00,76.5,63.9,30.21,SSE,158,0.0,0.0,65,0.00,,,0.00,WSDL version 430,2013-07-09 05:17:00,
2013-07-09 00:22:00,76.4,63.7,30.21,SSE,158,0.0,0.0,65,0.00,,,0.00,WSDL version 430,2013-07-09 05:22:00,
2013-07-09 00:27:00,76.3,63.7,30.21,SSE,158,0.0,0.0,65,0.00,,,0.00,WSDL version 430,2013-07-09 05:27:00,
2013-07-09 00:32:00,76.4,63.8,30.18,SSE,158,0.0,0.0,65,0.00,,,0.00,WSDL version 430,2013-07-09 05:32:00,
2013-07-09 00:37:00,76.2,63.6,30.18,SSE,158,0.0,0.0,65,0.00,,,0.00,WSDL version 430,2013-07-09 05:37:00,
2013-07-09 00:42:00,76.1,63.6,30.18,SSE,158,0.0,0.0,66,0.00,,,0.00,WSDL version 430,2013-07-09 05:42:00,
2013-07-09 00:47:00,76.1,63.6,30.18,SSE,158,0.0,0.0,65,0.00,,,0.00,WSDL version 430,2013-07-09 05:47:00,
2013-07-09 00:52:00,75.9,63.4,30.18,SSE,158,0.0,0.0,66,0.00,,,0.00,WSDL version 430,2013-07-09 05:52:00,
2013-07-09 00:57:00,76.0,63.7,30.18,SSE,158,0.0,0.0,65,0.00,,,0.00,WSDL version 430,2013-07-09 05:57:00,
2013-07-09 01:02:00,75.9,63.3,30.18,SSE,158,0.0,0.0,65,0.00,,,0.00,WSDL version 430,2013-07-09 06:02:00,
2013-07-09 01:07:00,75.6,63.2,30.18,SSE,158,0.0,0.0,65,0.00,,,0.00,WSDL version 430,2013-07-09 06:07:00,
2013-07-09 01:12:00,75.7,63.6,30.18,SSE,158,0.0,0.0,66,0.00,,,0.00,WSDL version 430,2013-07-09 06:12:00,
2013-07-09 01:17:00,75.7,63.5,30.18,SSE,158,0.0,0.0,66,0.00,,,0.00,WSDL version 430,2013-07-09 06:17:00,
2013-07-09 01:22:00,75.3,63.5,30.18,SSE,158,0.0,0.0,67,0.00,,,0.00,WSDL version 430,2013-07-09 06:22:00,
2013-07-09 01:27:00,75.1,63.4,30.18,SSE,158,0.0,0.0,67,0.00,,,0.00,WSDL version 430,2013-07-09 06:27:00,
2013-07-09 01:32:00,75.2,63.8,30.15,SSE,158,0.0,0.0,68,0.00,,,0.00,WSDL version 430,2013-07-09 06:32:00,
2013-07-09 01:37:00,75.1,63.8,30.15,SSE,158,0.0,0.0,68,0.00,,,0.00,WSDL version 430,2013-07-09 06:37:00,
2013-07-09 01:42:00,74.8,63.5,30.15,SSE,158,0.0,0.0,68,0.00,,,0.00,WSDL version 430,2013-07-09 06:42:00,
2013-07-09 01:47:00,74.5,63.2,30.15,SSE,158,0.0,0.0,68,0.00,,,0.00,WSDL version 430,2013-07-09 06:47:00,
2013-07-09 01:52:00,74.3,63.2,30.15,SSE,158,0.0,0.0,69,0.00,,,0.00,WSDL version 430,2013-07-09 06:52:00,
2013-07-09 01:57:00,74.5,63.7,30.15,SSE,158,0.0,0.0,69,0.00,,,0.00,WSDL version 430,2013-07-09 06:57:00,
2013-07-09 02:02:00,74.5,63.7,30.15,SSE,158,0.0,0.0,69,0.00,,,0.00,WSDL version 430,2013-07-09 07:02:00,
2013-07-09 02:07:00,74.2,63.4,30.15,SSE,158,0.0,0.0,69,0.00,,,0.00,WSDL version 430,2013-07-09 07:07:00,
2013-07-09 02:12:00,74.0,63.3,30.15,SSE,158,0.0,0.0,69,0.00,,,0.00,WSDL version 430,2013-07-09 07:12:00,
2013-07-09 02:17:00,73.9,63.2,30.15,SSE,158,0.0,0.0,70,0.00,,,0.00,WSDL version 430,2013-07-09 07:17:00,
2013-07-09 02:22:00,74.1,63.7,30.15,SSE,158,0.0,0.0,70,0.00,,,0.00,WSDL version 430,2013-07-09 07:22:00,
2013-07-09 02:27:00,74.2,63.8,30.15,SSE,158,0.0,0.0,70,0.00,,,0.00,WSDL version 430,2013-07-09 07:27:00,
2013-07-09 02:32:00,73.9,63.5,30.18,SSE,158,0.0,0.0,70,0.00,,,0.00,WSDL version 430,2013-07-09 07:32:00,
2013-07-09 02:37:00,73.7,63.3,30.18,SSE,158,0.0,0.0,70,0.00,,,0.00,WSDL version 430,2013-07-09 07:37:00,
2013-07-09 02:42:00,73.6,63.2,30.18,SSE,158,0.0,0.0,71,0.00,,,0.00,WSDL version 430,2013-07-09 07:42:00,
2013-07-09 02:47:00,73.4,63.4,30.18,SSE,158,0.0,0.0,71,0.00,,,0.00,WSDL version 430,2013-07-09 07:47:00,
2013-07-09 02:54:00,73.4,63.6,30.18,SSE,158,0.0,0.0,72,0.00,,,0.00,WSDL version 430,2013-07-09 07:54:00,
2013-07-09 02:59:00,73.8,64.2,30.18,SSE,158,0.0,0.0,72,0.00,,,0.00,WSDL version 430,2013-07-09 07:59:00,
2013-07-09 03:04:00,73.5,63.5,30.18,SSE,158,0.0,0.0,71,0.00,,,0.00,WSDL version 430,2013-07-09 08:04:00,
2013-07-09 03:09:00,73.3,63.7,30.18,SSE,158,0.0,0.0,72,0.00,,,0.00,WSDL version 430,2013-07-09 08:09:00,
2013-07-09 03:14:00,73.1,63.7,30.18,SSE,158,0.0,0.0,73,0.00,,,0.00,WSDL version 430,2013-07-09 08:14:00,
2013-07-09 03:19:00,72.9,63.8,30.18,SSE,158,0.0,0.0,73,0.00,,,0.00,WSDL version 430,2013-07-09 08:19:00,
2013-07-09 03:24:00,73.2,64.0,30.18,SSE,158,0.0,0.0,73,0.00,,,0.00,WSDL version 430,2013-07-09 08:24:00,
2013-07-09 03:29:00,73.4,64.2,30.15,SSE,158,0.0,0.0,73,0.00,,,0.00,WSDL version 430,2013-07-09 08:29:00,
2013-07-09 03:34:00,73.1,63.9,30.15,SSE,158,0.0,0.0,73,0.00,,,0.00,WSDL version 430,2013-07-09 08:34:00,
2013-07-09 03:39:00,72.8,63.8,30.15,SSE,158,0.0,0.0,74,0.00,,,0.00,WSDL version 430,2013-07-09 08:39:00,
2013-07-09 03:44:00,72.7,63.9,30.18,SSE,158,0.0,0.0,74,0.00,,,0.00,WSDL version 430,2013-07-09 08:44:00,
2013-07-09 03:49:00,72.5,63.8,30.18,SSE,158,0.0,0.0,74,0.00,,,0.00,WSDL version 430,2013-07-09 08:49:00,
2013-07-09 03:54:00,72.4,63.7,30.18,SSE,158,0.0,0.0,74,0.00,,,0.00,WSDL version 430,2013-07-09 08:54:00,
2013-07-09 03:59:00,72.3,64.0,30.18,SSE,158,0.0,0.0,75,0.00,,,0.00,WSDL version 430,2013-07-09 08:59:00,
2013-07-09 04:04:00,72.2,63.8,30.18,SSE,158,0.0,0.0,75,0.00,,,0.00,WSDL version 430,2013-07-09 09:04:00,
2013-07-09 04:09:00,72.4,64.2,30.18,SSE,158,0.0,0.0,76,0.00,,,0.00,WSDL version 430,2013-07-09 09:09:00,
2013-07-09 04:14:00,72.8,64.8,30.18,SSE,158,0.0,0.0,76,0.00,,,0.00,WSDL version 430,2013-07-09 09:14:00,
2013-07-09 04:19:00,72.6,64.6,30.18,SSE,158,0.0,0.0,76,0.00,,,0.00,WSDL version 430,2013-07-09 09:19:00,
2013-07-09 04:24:00,72.4,64.3,30.18,SSE,158,0.0,0.0,76,0.00,,,0.00,WSDL version 430,2013-07-09 09:24:00,
2013-07-09 04:29:00,72.3,64.3,30.18,SSE,158,0.0,0.0,76,0.00,,,0.00,WSDL version 430,2013-07-09 09:29:00,
2013-07-09 04:34:00,72.1,64.2,30.18,SSE,158,0.0,0.0,76,0.00,,,0.00,WSDL version 430,2013-07-09 09:34:00,
2013-07-09 04:39:00,72.1,64.1,30.18,SSE,158,0.0,0.0,76,0.00,,,0.00,WSDL version 430,2013-07-09 09:39:00,
2013-07-09 04:44:00,71.9,63.9,30.18,SSE,158,0.0,0.0,76,0.00,,,0.00,WSDL version 430,2013-07-09 09:44:00,
2013-07-09 04:49:00,71.8,64.2,30.18,SSE,158,0.0,0.0,77,0.00,,,0.00,WSDL version 430,2013-07-09 09:49:00,
2013-07-09 04:54:00,71.8,64.2,30.18,SSE,158,0.0,0.0,77,0.00,,,0.00,WSDL version 430,2013-07-09 09:54:00,
2013-07-09 04:59:00,71.8,64.2,30.18,SSE,158,0.0,0.0,77,0.00,,,0.00,WSDL version 430,2013-07-09 09:59:00,
2013-07-09 05:04:00,72.4,65.1,30.18,SSE,158,0.0,0.0,78,0.00,,,0.00,WSDL version 430,2013-07-09 10:04:00,
2013-07-09 05:09:00,72.4,64.8,30.18,SSE,158,0.0,0.0,77,0.00,,,0.00,WSDL version 430,2013-07-09 10:09:00,
2013-07-09 05:14:00,72.1,64.5,30.18,SE,135,0.0,0.9,77,0.00,,,0.00,WSDL version 430,2013-07-09 10:14:00,
2013-07-09 05:19:00,72.0,64.4,30.18,SE,135,0.0,0.9,77,0.00,,,0.00,WSDL version 430,2013-07-09 10:19:00,
2013-07-09 05:24:00,71.8,64.2,30.18,SE,135,0.0,0.0,77,0.00,,,0.00,WSDL version 430,2013-07-09 10:24:00,
2013-07-09 05:29:00,71.7,64.2,30.18,SE,135,0.4,1.1,78,0.00,,,0.00,WSDL version 430,2013-07-09 10:29:00,
2013-07-09 05:34:00,71.6,64.4,30.18,SE,135,0.0,1.1,78,0.00,,,0.00,WSDL version 430,2013-07-09 10:34:00,
2013-07-09 05:39:00,71.6,64.4,30.18,SE,135,0.0,0.0,78,0.00,,,0.00,WSDL version 430,2013-07-09 10:39:00,
2013-07-09 05:44:00,71.6,64.4,30.15,SE,135,0.0,0.0,78,0.00,,,0.00,WSDL version 430,2013-07-09 10:44:00,
2013-07-09 05:49:00,71.6,64.6,30.15,SE,135,0.0,0.0,79,0.00,,,0.00,WSDL version 430,2013-07-09 10:49:00,
2013-07-09 05:54:00,71.6,64.7,30.15,SE,135,0.0,0.0,79,0.00,,,0.00,WSDL version 430,2013-07-09 10:54:00,
2013-07-09 05:59:00,71.5,64.8,30.18,SE,135,0.0,0.0,80,0.00,,,0.00,WSDL version 430,2013-07-09 10:59:00,
2013-07-09 06:04:00,71.4,64.9,30.18,SE,135,0.0,0.0,80,0.00,,,0.00,WSDL version 430,2013-07-09 11:04:00,
2013-07-09 06:09:00,71.4,64.9,30.18,SE,135,0.0,0.0,80,0.00,,,0.00,WSDL version 430,2013-07-09 11:09:00,
2013-07-09 06:14:00,71.4,64.9,30.18,SE,135,0.0,0.0,80,0.00,,,0.00,WSDL version 430,2013-07-09 11:14:00,
2013-07-09 06:19:00,71.6,65.1,30.18,SE,135,0.0,0.0,80,0.00,,,0.00,WSDL version 430,2013-07-09 11:19:00,
2013-07-09 06:24:00,72.3,65.9,30.18,SE,135,0.0,0.0,80,0.00,,,0.00,WSDL version 430,2013-07-09 11:24:00,
2013-07-09 06:29:00,72.3,65.5,30.18,ESE,113,0.0,3.4,79,0.00,,,0.00,WSDL version 430,2013-07-09 11:29:00,
2013-07-09 06:34:00,72.1,65.3,30.18,ESE,113,0.0,3.4,79,0.00,,,0.00,WSDL version 430,2013-07-09 11:34:00,
2013-07-09 06:39:00,72.0,65.1,30.18,ESE,113,0.0,0.0,79,0.00,,,0.00,WSDL version 430,2013-07-09 11:39:00,
2013-07-09 06:44:00,72.1,65.2,30.18,ESE,113,0.0,0.0,79,0.00,,,0.00,WSDL version 430,2013-07-09 11:44:00,
2013-07-09 06:49:00,72.1,65.3,30.18,ESE,113,0.0,0.0,80,0.00,,,0.00,WSDL version 430,2013-07-09 11:49:00,
2013-07-09 06:59:00,74.2,68.4,30.18,ESE,113,0.0,1.3,80,0.00,,,0.00,WSDL version 430,2013-07-09 11:59:00,
2013-07-09 07:04:00,74.4,67.3,30.18,SE,131,0.5,1.3,78,0.00,,,0.00,WSDL version 430,2013-07-09 12:04:00,
2013-07-09 07:09:00,74.2,66.6,30.18,SE,135,0.1,1.3,77,0.00,,,0.00,WSDL version 430,2013-07-09 12:09:00,
2013-07-09 07:14:00,74.1,66.5,30.21,SE,135,0.0,1.1,77,0.00,,,0.00,WSDL version 430,2013-07-09 12:14:00,
2013-07-09 07:19:00,74.1,66.5,30.21,SSE,147,1.0,1.6,77,0.00,,,0.00,WSDL version 430,2013-07-09 12:19:00,
2013-07-09 07:24:00,74.1,66.5,30.21,South,170,0.9,1.6,77,0.00,,,0.00,WSDL version 430,2013-07-09 12:24:00,
2013-07-09 07:29:00,74.1,66.5,30.18,SW,217,0.6,1.6,77,0.00,,,0.00,WSDL version 430,2013-07-09 12:29:00,
2013-07-09 07:34:00,74.2,66.6,30.18,SSW,194,0.4,1.6,77,0.00,,,0.00,WSDL version 430,2013-07-09 12:34:00,
2013-07-09 07:39:00,74.3,66.6,30.18,SSE,158,0.0,1.6,77,0.00,,,0.00,WSDL version 430,2013-07-09 12:39:00,
2013-07-09 07:44:00,74.4,66.8,30.21,SSE,158,0.0,0.0,78,0.00,,,0.00,WSDL version 430,2013-07-09 12:44:00,
2013-07-09 07:49:00,75.8,68.8,30.21,South,178,0.0,1.1,78,0.00,,,0.00,WSDL version 430,2013-07-09 12:49:00,
2013-07-09 07:54:00,76.9,68.5,30.21,SW,225,0.0,1.1,75,0.00,,,0.00,WSDL version 430,2013-07-09 12:54:00,
2013-07-09 07:59:00,76.6,67.7,30.21,South,189,0.7,2.2,74,0.00,,,0.00,WSDL version 430,2013-07-09 12:59:00,
2013-07-09 08:04:00,76.3,67.4,30.21,SSW,203,0.0,2.2,74,0.00,,,0.00,WSDL version 430,2013-07-09 13:04:00,
2013-07-09 08:09:00,76.3,67.4,30.21,SSW,200,1.6,2.9,74,0.00,,,0.00,WSDL version 430,2013-07-09 13:09:00,
2013-07-09 08:14:00,76.5,67.6,30.21,South,180,0.6,3.1,75,0.00,,,0.00,WSDL version 430,2013-07-09 13:14:00,
2013-07-09 08:19:00,77.6,68.9,30.21,SSW,194,1.5,3.1,74,0.00,,,0.00,WSDL version 430,2013-07-09 13:19:00,
2013-07-09 08:24:00,78.2,67.9,30.21,SW,216,0.9,3.1,70,0.00,,,0.00,WSDL version 430,2013-07-09 13:24:00,
2013-07-09 08:29:00,77.9,67.7,30.21,South,186,1.8,2.9,71,0.00,,,0.00,WSDL version 430,2013-07-09 13:29:00,
2013-07-09 08:34:00,77.8,67.2,30.21,South,180,1.1,2.9,70,0.00,,,0.00,WSDL version 430,2013-07-09 13:34:00,
2013-07-09 08:39:00,77.9,67.7,30.21,SW,218,1.6,3.1,71,0.00,,,0.00,WSDL version 430,2013-07-09 13:39:00,
2013-07-09 08:44:00,78.1,67.9,30.21,SSW,203,0.4,3.8,71,0.00,,,0.00,WSDL version 430,2013-07-09 13:44:00,
2013-07-09 08:49:00,78.3,68.2,30.21,SSW,205,1.0,3.8,72,0.00,,,0.00,WSDL version 430,2013-07-09 13:49:00,
2013-07-09 08:54:00,78.7,68.1,30.21,SW,223,2.3,3.8,69,0.00,,,0.00,WSDL version 430,2013-07-09 13:54:00,
2013-07-09 08:59:00,79.0,67.9,30.21,SW,225,1.8,5.4,69,0.00,,,0.00,WSDL version 430,2013-07-09 13:59:00,
2013-07-09 09:04:00,79.8,68.3,30.21,SW,223,2.6,6.0,67,0.00,,,0.00,WSDL version 430,2013-07-09 14:04:00,
2013-07-09 09:09:00,80.2,67.7,30.21,SSW,205,3.2,6.0,65,0.00,,,0.00,WSDL version 430,2013-07-09 14:09:00,
2013-07-09 09:14:00,80.3,67.4,30.21,SSW,212,2.7,4.9,65,0.00,,,0.00,WSDL version 430,2013-07-09 14:14:00,
2013-07-09 09:19:00,80.5,67.8,30.21,SSW,203,2.1,4.7,65,0.00,,,0.00,WSDL version 430,2013-07-09 14:19:00,
2013-07-09 09:24:00,80.8,67.7,30.21,SSW,204,2.6,6.3,65,0.00,,,0.00,WSDL version 430,2013-07-09 14:24:00,
2013-07-09 09:29:00,81.1,67.6,30.21,SW,230,3.0,6.3,62,0.00,,,0.00,WSDL version 430,2013-07-09 14:29:00,
2013-07-09 09:34:00,81.4,67.5,30.21,SW,223,2.5,5.4,63,0.00,,,0.00,WSDL version 430,2013-07-09 14:34:00,
2013-07-09 09:39:00,81.7,67.6,30.21,SSW,203,3.3,4.0,62,0.00,,,0.00,WSDL version 430,2013-07-09 14:39:00,
2013-07-09 09:44:00,82.0,67.6,30.21,SW,218,3.2,5.6,62,0.00,,,0.00,WSDL version 430,2013-07-09 14:44:00,
2013-07-09 09:49:00,82.3,67.8,30.21,South,188,1.2,5.6,62,0.00,,,0.00,WSDL version 430,2013-07-09 14:49:00,
2013-07-09 09:54:00,82.6,67.6,30.21,WSW,243,2.1,4.7,61,0.00,,,0.00,WSDL version 430,2013-07-09 14:54:00,
2013-07-09 09:59:00,83.2,67.7,30.21,South,190,2.4,4.3,59,0.00,,,0.00,WSDL version 430,2013-07-09 14:59:00,
2013-07-09 10:04:00,83.4,67.4,30.21,West,280,3.5,5.4,59,0.00,,,0.00,WSDL version 430,2013-07-09 15:04:00,
2013-07-09 10:09:00,83.6,66.3,30.21,SSW,211,3.1,5.4,55,0.00,,,0.00,WSDL version 430,2013-07-09 15:09:00,
2013-07-09 10:14:00,83.9,66.3,30.21,SSW,209,3.1,6.0,56,0.00,,,0.00,WSDL version 430,2013-07-09 15:14:00,
2013-07-09 10:19:00,84.1,65.8,30.21,SSW,200,3.4,6.0,54,0.00,,,0.00,WSDL version 430,2013-07-09 15:19:00,
2013-07-09 10:24:00,84.3,65.6,30.21,South,190,3.5,5.6,52,0.00,,,0.00,WSDL version 430,2013-07-09 15:24:00,
2013-07-09 10:29:00,84.6,65.3,30.21,SSW,205,3.0,5.6,53,0.00,,,0.00,WSDL version 430,2013-07-09 15:29:00,
2013-07-09 10:34:00,84.6,65.1,30.21,WSW,241,2.6,5.4,52,0.00,,,0.00,WSDL version 430,2013-07-09 15:34:00,
2013-07-09 10:39:00,84.9,65.5,30.21,SSE,151,2.7,5.4,54,0.00,,,0.00,WSDL version 430,2013-07-09 15:39:00,
2013-07-09 10:44:00,85.5,65.5,30.21,WSW,241,2.9,6.5,50,0.00,,,0.00,WSDL version 430,2013-07-09 15:44:00,
2013-07-09 10:49:00,85.6,65.1,30.21,SW,218,2.7,6.5,51,0.00,,,0.00,WSDL version 430,2013-07-09 15:49:00,
2013-07-09 10:54:00,85.8,65.6,30.21,SSW,212,2.5,5.6,50,0.00,,,0.00,WSDL version 430,2013-07-09 15:54:00,
2013-07-09 10:59:00,86.3,65.9,30.21,SW,218,2.8,5.6,50,0.00,,,0.00,WSDL version 430,2013-07-09 15:59:00,
2013-07-09 11:04:00,86.4,65.5,30.21,SSE,167,3.0,6.3,51,0.00,,,0.00,WSDL version 430,2013-07-09 16:04:00,
2013-07-09 11:09:00,86.4,65.3,30.21,SSW,212,2.7,6.3,49,0.00,,,0.00,WSDL version 430,2013-07-09 16:09:00,
2013-07-09 11:14:00,86.7,65.1,30.21,SSW,203,2.1,4.3,48,0.00,,,0.00,WSDL version 430,2013-07-09 16:14:00,
2013-07-09 11:19:00,87.0,64.8,30.21,WSW,244,3.0,4.3,47,0.00,,,0.00,WSDL version 430,2013-07-09 16:19:00,
2013-07-09 11:24:00,87.1,64.3,30.21,SSW,198,2.5,6.0,46,0.00,,,0.00,WSDL version 430,2013-07-09 16:24:00,
2013-07-09 11:29:00,87.1,63.4,30.21,South,180,3.2,6.0,46,0.00,,,0.00,WSDL version 430,2013-07-09 16:29:00,
2013-07-09 11:34:00,87.1,63.3,30.21,SSW,210,3.3,5.4,44,0.00,,,0.00,WSDL version 430,2013-07-09 16:34:00,
2013-07-09 11:44:00,87.3,63.5,30.18,South,178,2.8,6.5,46,0.00,,,0.00,WSDL version 430,2013-07-09 16:44:00,
2013-07-09 11:49:00,87.6,63.8,30.18,SSW,198,1.9,4.9,46,0.00,,,0.00,WSDL version 430,2013-07-09 16:49:00,
2013-07-09 11:54:00,88.3,64.1,30.18,South,182,3.3,4.3,44,0.00,,,0.00,WSDL version 430,2013-07-09 16:54:00,
2013-07-09 11:59:00,88.3,63.0,30.18,SW,221,2.6,4.3,43,0.00,,,0.00,WSDL version 430,2013-07-09 16:59:00,
2013-07-09 12:04:00,88.5,63.7,30.18,SSW,192,2.1,5.8,45,0.00,,,0.00,WSDL version 430,2013-07-09 17:04:00,
2013-07-09 12:09:00,89.0,64.5,30.18,SSW,213,2.8,5.8,44,0.00,,,0.00,WSDL version 430,2013-07-09 17:09:00,
2013-07-09 12:14:00,89.1,64.4,30.18,SW,217,2.2,3.8,45,0.00,,,0.00,WSDL version 430,2013-07-09 17:14:00,
2013-07-09 12:19:00,89.4,64.5,30.18,SSW,192,3.3,4.9,44,0.00,,,0.00,WSDL version 430,2013-07-09 17:19:00,
2013-07-09 12:24:00,89.4,63.8,30.18,SSW,205,2.7,4.9,41,0.00,,,0.00,WSDL version 430,2013-07-09 17:24:00,
2013-07-09 12:29:00,89.5,63.1,30.18,SSW,209,2.8,5.8,41,0.00,,,0.00,WSDL version 430,2013-07-09 17:29:00,
2013-07-09 12:34:00,89.8,62.9,30.18,SW,227,2.6,6.9,41,0.00,,,0.00,WSDL version 430,2013-07-09 17:34:00,
2013-07-09 12:39:00,89.9,61.8,30.18,WSW,256,3.7,6.9,38,0.00,,,0.00,WSDL version 430,2013-07-09 17:39:00,
2013-07-09 12:44:00,90.1,61.7,30.18,South,191,3.9,6.5,39,0.00,,,0.00,WSDL version 430,2013-07-09 17:44:00,
2013-07-09 12:54:00,90.7,63.1,30.18,South,186,3.2,6.3,41,0.00,,,0.00,WSDL version 430,2013-07-09 17:54:00,
2013-07-09 12:59:00,91.0,63.5,30.18,West,266,2.0,4.7,40,0.00,,,0.00,WSDL version 430,2013-07-09 17:59:00,
2013-07-09 13:04:00,91.1,62.6,30.18,SW,230,3.2,5.4,39,0.00,,,0.00,WSDL version 430,2013-07-09 18:04:00,
2013-07-09 13:09:00,90.6,62.9,30.18,WSW,243,2.2,5.4,40,0.00,,,0.00,WSDL version 430,2013-07-09 18:09:00,
2013-07-09 13:14:00,91.3,63.0,30.21,SSW,203,2.7,3.8,39,0.00,,,0.00,WSDL version 430,2013-07-09 18:14:00,
2013-07-09 13:19:00,91.6,63.5,30.21,WSW,246,2.1,3.8,39,0.00,,,0.00,WSDL version 430,2013-07-09 18:19:00,
2013-07-09 13:24:00,91.9,63.2,30.21,WSW,245,1.6,3.6,40,0.00,,,0.00,WSDL version 430,2013-07-09 18:24:00,
2013-07-09 13:29:00,92.7,63.0,30.18,SSW,208,3.3,4.3,36,0.00,,,0.00,WSDL version 430,2013-07-09 18:29:00,
2013-07-09 13:34:00,92.5,62.3,30.18,SW,216,2.5,4.7,36,0.00,,,0.00,WSDL version 430,2013-07-09 18:34:00,
2013-07-09 13:39:00,92.1,61.5,30.18,SSW,203,3.1,4.7,36,0.00,,,0.00,WSDL version 430,2013-07-09 18:39:00,
2013-07-09 13:44:00,92.3,61.5,30.18,SW,227,3.8,5.8,34,0.00,,,0.00,WSDL version 430,2013-07-09 18:44:00,
2013-07-09 13:49:00,92.3,61.1,30.18,SW,219,3.4,5.8,35,0.00,,,0.00,WSDL version 430,2013-07-09 18:49:00,
2013-07-09 13:54:00,92.4,62.0,30.18,SSW,198,2.9,6.3,37,0.00,,,0.00,WSDL version 430,2013-07-09 18:54:00,
2013-07-09 13:59:00,92.5,60.5,30.18,SSW,209,3.4,7.6,33,0.00,,,0.00,WSDL version 430,2013-07-09 18:59:00,
2013-07-09 14:04:00,92.4,60.2,30.18,SW,216,2.8,7.6,35,0.00,,,0.00,WSDL version 430,2013-07-09 19:04:00,
2013-07-09 14:09:00,92.5,60.1,30.18,SW,221,3.6,7.6,35,0.00,,,0.00,WSDL version 430,2013-07-09 19:09:00,
2013-07-09 14:14:00,92.5,59.9,30.15,WSW,243,2.9,6.3,34,0.00,,,0.00,WSDL version 430,2013-07-09 19:14:00,
2013-07-09 14:19:00,93.5,61.7,30.15,WSW,253,2.5,5.4,34,0.00,,,0.00,WSDL version 430,2013-07-09 19:19:00,
2013-07-09 14:24:00,93.6,59.5,30.15,SW,223,2.3,5.4,34,0.00,,,0.00,WSDL version 430,2013-07-09 19:24:00,
2013-07-09 14:29:00,93.5,58.7,30.15,SSW,195,2.1,5.4,32,0.00,,,0.00,WSDL version 430,2013-07-09 19:29:00,
2013-07-09 14:34:00,93.4,59.3,30.15,WSW,241,3.4,4.7,33,0.00,,,0.00,WSDL version 430,2013-07-09 19:34:00,
2013-07-09 14:39:00,93.2,60.0,30.15,SW,223,2.5,4.7,33,0.00,,,0.00,WSDL version 430,2013-07-09 19:39:00,
2013-07-09 14:44:00,93.6,60.7,30.15,South,173,3.2,4.9,33,0.00,,,0.00,WSDL version 430,2013-07-09 19:44:00,
2013-07-09 14:49:00,93.9,59.6,30.15,SW,215,2.8,4.9,32,0.00,,,0.00,WSDL version 430,2013-07-09 19:49:00,
2013-07-09 14:54:00,93.8,60.7,30.15,SSW,203,2.3,4.3,34,0.00,,,0.00,WSDL version 430,2013-07-09 19:54:00,
2013-07-09 14:59:00,94.6,59.6,30.15,SSW,194,2.5,6.3,32,0.00,,,0.00,WSDL version 430,2013-07-09 19:59:00,
2013-07-09 15:04:00,94.4,58.7,30.15,SSW,200,2.4,6.3,31,0.00,,,0.00,WSDL version 430,2013-07-09 20:04:00,
2013-07-09 15:09:00,94.5,59.5,30.15,SSW,210,2.7,5.4,31,0.00,,,0.00,WSDL version 430,2013-07-09 20:09:00,
2013-07-09 15:14:00,94.4,57.8,30.15,SSW,200,3.3,6.3,29,0.00,,,0.00,WSDL version 430,2013-07-09 20:14:00,
2013-07-09 15:19:00,94.1,57.5,30.15,South,188,2.5,6.3,31,0.00,,,0.00,WSDL version 430,2013-07-09 20:19:00,
2013-07-09 15:24:00,94.3,58.6,30.15,WSW,248,2.6,4.3,30,0.00,,,0.00,WSDL version 430,2013-07-09 20:24:00,
2013-07-09 15:29:00,94.4,57.9,30.15,SW,221,3.4,4.9,29,0.00,,,0.00,WSDL version 430,2013-07-09 20:29:00,
2013-07-09 15:34:00,94.0,57.6,30.15,SSW,205,3.6,6.5,30,0.00,,,0.00,WSDL version 430,2013-07-09 20:34:00,
2013-07-09 15:39:00,93.9,56.4,30.15,SW,221,3.0,6.5,28,0.00,,,0.00,WSDL version 430,2013-07-09 20:39:00,
2013-07-09 15:44:00,94.0,57.3,30.15,SW,215,2.4,6.3,30,0.00,,,0.00,WSDL version 430,2013-07-09 20:44:00,
2013-07-09 17:15:00,94.4,58.5,30.12,SSW,208,2.7,3.6,30,0.00,,,0.00,WSDL version 430,2013-07-09 22:15:00,
2013-07-09 17:25:00,95.6,59.6,30.12,SW,221,2.7,3.6,29,0.00,,,0.00,WSDL version 430,2013-07-09 22:25:00,
2013-07-09 17:30:00,95.4,58.3,30.09,SW,227,2.9,4.3,29,0.00,,,0.00,WSDL version 430,2013-07-09 22:30:00,
2013-07-09 17:35:00,95.1,57.3,30.09,SSW,205,2.8,4.3,28,0.00,,,0.00,WSDL version 430,2013-07-09 22:35:00,
2013-07-09 17:40:00,95.0,57.9,30.09,SW,214,3.1,4.7,29,0.00,,,0.00,WSDL version 430,2013-07-09 22:40:00,
2013-07-09 17:45:00,94.7,57.5,30.09,SSW,207,2.6,4.7,29,0.00,,,0.00,WSDL version 430,2013-07-09 22:45:00,
2013-07-09 17:50:00,94.9,58.9,30.09,SW,216,2.0,4.3,31,0.00,,,0.00,WSDL version 430,2013-07-09 22:50:00,
2013-07-09 17:55:00,95.2,58.6,30.09,SSW,206,3.0,4.9,29,0.00,,,0.00,WSDL version 430,2013-07-09 22:55:00,
2013-07-09 18:00:00,95.0,59.2,30.12,SSW,211,2.2,7.4,30,0.00,,,0.00,WSDL version 430,2013-07-09 23:00:00,
2013-07-09 18:06:00,95.0,58.7,30.12,SSW,205,1.6,4.0,30,0.00,,,0.00,WSDL version 430,2013-07-09 23:06:00,
2013-07-09 18:11:00,95.0,59.0,30.12,SSW,213,2.3,3.4,30,0.00,,,0.00,WSDL version 430,2013-07-09 23:11:00,
2013-07-09 18:16:00,94.3,58.3,30.09,SW,214,2.2,3.4,31,0.00,,,0.00,WSDL version 430,2013-07-09 23:16:00,
2013-07-09 18:21:00,94.1,58.4,30.09,SW,221,1.8,3.1,31,0.00,,,0.00,WSDL version 430,2013-07-09 23:21:00,
2013-07-09 18:26:00,94.6,59.0,30.09,SSW,200,2.4,5.6,31,0.00,,,0.00,WSDL version 430,2013-07-09 23:26:00,
2013-07-09 18:31:00,95.0,59.5,30.12,SW,215,2.6,5.6,30,0.00,,,0.00,WSDL version 430,2013-07-09 23:31:00,
2013-07-09 18:36:00,95.0,59.5,30.12,SSW,201,2.7,4.9,32,0.00,,,0.00,WSDL version 430,2013-07-09 23:36:00,
2013-07-09 18:41:00,95.2,59.4,30.12,SW,214,2.1,4.9,30,0.00,,,0.00,WSDL version 430,2013-07-09 23:41:00,
2013-07-09 18:46:00,95.0,59.2,30.12,SSW,205,2.1,3.8,31,0.00,,,0.00,WSDL version 430,2013-07-09 23:46:00,
2013-07-09 18:51:00,95.1,59.7,30.12,SW,223,2.0,3.6,31,0.00,,,0.00,WSDL version 430,2013-07-09 23:51:00,
2013-07-09 18:56:00,94.8,59.7,30.12,SSW,213,1.9,2.7,32,0.00,,,0.00,WSDL version 430,2013-07-09 23:56:00,
2013-07-09 19:01:00,94.7,59.5,30.12,SSW,210,2.0,3.4,31,0.00,,,0.00,WSDL version 430,2013-07-10 00:01:00,
2013-07-09 19:14:00,94.4,59.3,30.12,SSW,208,1.7,3.1,31,0.00,,,0.00,WSDL version 430,2013-07-10 00:14:00,
2013-07-09 19:19:00,93.5,58.8,30.12,SSW,196,1.9,3.4,32,0.00,,,0.00,WSDL version 430,2013-07-10 00:19:00,
2013-07-09 19:24:00,92.8,59.5,30.12,SSW,196,1.7,3.4,34,0.00,,,0.00,WSDL version 430,2013-07-10 00:24:00,
2013-07-09 19:29:00,92.8,62.2,30.12,South,190,1.3,3.1,37,0.00,,,0.00,WSDL version 430,2013-07-10 00:29:00,
2013-07-09 19:34:00,92.8,61.9,30.12,SSW,196,2.0,2.5,35,0.00,,,0.00,WSDL version 430,2013-07-10 00:34:00,
2013-07-09 19:39:00,92.5,60.9,30.12,WSW,248,0.3,2.5,35,0.00,,,0.00,WSDL version 430,2013-07-10 00:39:00,
2013-07-09 19:44:00,92.7,61.8,30.12,SSE,151,0.3,2.0,36,0.00,,,0.00,WSDL version 430,2013-07-10 00:44:00,
2013-07-09 19:49:00,92.3,61.2,30.12,SSW,203,0.3,1.6,36,0.00,,,0.00,WSDL version 430,2013-07-10 00:49:00,
2013-07-09 19:54:00,91.6,61.7,30.12,SSW,207,0.3,2.0,38,0.00,,,0.00,WSDL version 430,2013-07-10 00:54:00,
2013-07-09 19:59:00,91.7,62.2,30.12,WSW,248,0.0,2.0,38,0.00,,,0.00,WSDL version 430,2013-07-10 00:59:00,
2013-07-09 20:04:00,91.5,62.4,30.12,SSW,203,0.0,1.3,38,0.00,,,0.00,WSDL version 430,2013-07-10 01:04:00,
2013-07-09 20:09:00,91.1,62.2,30.12,SSW,203,0.0,0.0,39,0.00,,,0.00,WSDL version 430,2013-07-10 01:09:00,
2013-07-09 20:14:00,90.7,62.4,30.12,SSW,203,0.0,0.0,39,0.00,,,0.00,WSDL version 430,2013-07-10 01:14:00,
2013-07-09 20:19:00,90.3,62.2,30.12,SSW,203,0.0,0.0,40,0.00,,,0.00,WSDL version 430,2013-07-10 01:19:00,
2013-07-09 20:24:00,90.0,62.6,30.12,SSW,203,0.0,0.0,41,0.00,,,0.00,WSDL version 430,2013-07-10 01:24:00,
2013-07-09 20:29:00,89.2,62.8,30.12,SSW,203,0.0,0.0,42,0.00,,,0.00,WSDL version 430,2013-07-10 01:29:00,
2013-07-09 20:34:00,88.4,62.6,30.12,SSW,203,0.0,0.0,43,0.00,,,0.00,WSDL version 430,2013-07-10 01:34:00,
2013-07-09 20:39:00,88.0,62.7,30.12,SSW,203,0.0,0.0,43,0.00,,,0.00,WSDL version 430,2013-07-10 01:39:00,
2013-07-09 20:44:00,87.7,62.8,30.09,SSW,203,0.0,0.0,44,0.00,,,0.00,WSDL version 430,2013-07-10 01:44:00,
2013-07-09 20:49:00,87.3,63.2,30.09,SSW,203,0.0,0.0,45,0.00,,,0.00,WSDL version 430,2013-07-10 01:49:00,
2013-07-09 20:54:00,86.6,62.9,30.09,SSW,203,0.0,0.0,46,0.00,,,0.00,WSDL version 430,2013-07-10 01:54:00,
2013-07-09 20:59:00,86.0,63.0,30.09,SSW,203,0.0,0.0,47,0.00,,,0.00,WSDL version 430,2013-07-10 01:59:00,
2013-07-09 21:04:00,85.9,63.7,30.09,SSW,203,0.0,0.0,48,0.00,,,0.00,WSDL version 430,2013-07-10 02:04:00,
2013-07-09 21:09:00,85.6,63.7,30.09,SSW,203,0.0,0.0,48,0.00,,,0.00,WSDL version 430,2013-07-10 02:09:00,
2013-07-09 21:14:00,84.9,63.5,30.12,SSW,203,0.0,0.0,49,0.00,,,0.00,WSDL version 430,2013-07-10 02:14:00,
2013-07-09 21:19:00,84.6,63.6,30.12,SSW,203,0.0,0.0,50,0.00,,,0.00,WSDL version 430,2013-07-10 02:19:00,
2013-07-09 21:24:00,84.5,64.2,30.12,SSW,203,0.0,0.0,51,0.00,,,0.00,WSDL version 430,2013-07-10 02:24:00,
2013-07-09 21:29:00,83.9,64.4,30.12,SSW,203,0.0,0.0,52,0.00,,,0.00,WSDL version 430,2013-07-10 02:29:00,
2013-07-09 21:34:00,83.5,64.0,30.12,SSW,203,0.0,0.0,52,0.00,,,0.00,WSDL version 430,2013-07-10 02:34:00,
2013-07-09 21:39:00,83.7,64.6,30.12,SSW,203,0.0,0.0,53,0.00,,,0.00,WSDL version 430,2013-07-10 02:39:00,
2013-07-09 21:44:00,83.6,64.8,30.12,SSW,203,0.0,0.0,53,0.00,,,0.00,WSDL version 430,2013-07-10 02:44:00,
2013-07-09 21:49:00,83.1,64.4,30.12,SSW,203,0.0,0.0,54,0.00,,,0.00,WSDL version 430,2013-07-10 02:49:00,
2013-07-09 21:54:00,82.8,64.4,30.12,SSW,203,0.0,0.0,54,0.00,,,0.00,WSDL version 430,2013-07-10 02:54:00,
2013-07-09 21:59:00,82.7,64.9,30.12,SSW,203,0.0,0.0,55,0.00,,,0.00,WSDL version 430,2013-07-10 02:59:00,
2013-07-09 22:04:00,82.2,64.7,30.12,SSW,203,0.0,0.0,56,0.00,,,0.00,WSDL version 430,2013-07-10 03:04:00,
2013-07-09 22:09:00,82.0,64.8,30.12,SSW,203,0.0,0.0,56,0.00,,,0.00,WSDL version 430,2013-07-10 03:09:00,
2013-07-09 22:14:00,82.3,65.0,30.12,SSW,203,0.0,0.0,56,0.00,,,0.00,WSDL version 430,2013-07-10 03:14:00,
2013-07-09 22:19:00,81.8,64.6,30.12,SSW,203,0.0,0.0,56,0.00,,,0.00,WSDL version 430,2013-07-10 03:19:00,
2013-07-09 22:24:00,81.5,64.7,30.12,SSW,203,0.0,0.0,57,0.00,,,0.00,WSDL version 430,2013-07-10 03:24:00,
2013-07-09 22:29:00,81.5,64.8,30.12,SSW,203,0.0,0.0,57,0.00,,,0.00,WSDL version 430,2013-07-10 03:29:00,
2013-07-09 22:34:00,81.0,64.4,30.12,SSW,203,0.0,0.0,57,0.00,,,0.00,WSDL version 430,2013-07-10 03:34:00,
2013-07-09 22:39:00,81.4,64.9,30.12,SSW,203,0.0,0.0,58,0.00,,,0.00,WSDL version 430,2013-07-10 03:39:00,
2013-07-09 22:44:00,81.4,65.2,30.12,SSW,203,0.0,0.0,58,0.00,,,0.00,WSDL version 430,2013-07-10 03:44:00,
2013-07-09 22:49:00,81.0,64.8,30.12,SSW,203,0.0,1.1,58,0.00,,,0.00,WSDL version 430,2013-07-10 03:49:00,
2013-07-09 22:54:00,81.1,64.9,30.12,SSW,203,0.0,1.1,58,0.00,,,0.00,WSDL version 430,2013-07-10 03:54:00,
2013-07-09 22:59:00,81.1,65.1,30.09,SSW,203,0.0,0.0,58,0.00,,,0.00,WSDL version 430,2013-07-10 03:59:00,
2013-07-09 23:04:00,80.7,64.8,30.09,SSW,203,0.0,1.3,59,0.00,,,0.00,WSDL version 430,2013-07-10 04:04:00,
2013-07-09 23:09:00,80.7,65.0,30.09,SSW,203,0.0,1.3,59,0.00,,,0.00,WSDL version 430,2013-07-10 04:09:00,
2013-07-09 23:14:00,80.7,65.1,30.12,SSW,203,0.0,0.0,59,0.00,,,0.00,WSDL version 430,2013-07-10 04:14:00,
2013-07-09 23:19:00,80.3,64.8,30.12,SSW,203,0.0,0.0,60,0.00,,,0.00,WSDL version 430,2013-07-10 04:19:00,
2013-07-09 23:24:00,80.6,65.3,30.12,SSW,203,0.0,0.0,60,0.00,,,0.00,WSDL version 430,2013-07-10 04:24:00,
2013-07-09 23:29:00,80.5,65.3,30.12,SSW,203,0.0,0.0,60,0.00,,,0.00,WSDL version 430,2013-07-10 04:29:00,
2013-07-09 23:34:00,80.0,64.9,30.12,SSW,203,0.0,0.0,61,0.00,,,0.00,WSDL version 430,2013-07-10 04:34:00,
2013-07-09 23:39:00,80.1,65.4,30.12,SSW,203,0.0,0.0,61,0.00,,,0.00,WSDL version 430,2013-07-10 04:39:00,
2013-07-09 23:44:00,79.8,65.2,30.12,SSW,203,0.0,0.0,61,0.00,,,0.00,WSDL version 430,2013-07-10 04:44:00,
2013-07-09 23:49:00,79.6,64.9,30.12,SSW,203,0.0,0.0,61,0.00,,,0.00,WSDL version 430,2013-07-10 04:49:00,
2013-07-09 23:59:00,79.2,64.7,30.12,SSW,203,0.0,0.0,62,0.00,,,0.00,WSDL version 430,2013-07-10 04:59:00,